Weather History for Dickinson, ND

Change the Weather History Date:

Thursday, March 14, 2013

  Actual Average Record
Temperature  
Mean Temperature 47 °F 29 °F  
Max Temperature 66 °F 40 °F 71 °F (1935)
Min Temperature 27 °F 18 °F -29 °F (1906)
Degree Days  
Heating Degree Days 18 36  
Month to date heating degree days 506 537  
Since 1 July heating degree days 6484 6831  
Cooling Degree Days 0 0  
Month to date cooling degree days 0 0  
Year to date cooling degree days 0 0  
Moisture  
Dew Point 32 °F    
Average Humidity 66    
Maximum Humidity 100    
Minimum Humidity 31    
Precipitation  
Precipitation 0.00 in 0.02 in 0.16 in (2001)
Month to date precipitation 0.22 0.25  
Year to date precipitation 0.30 0.88  
Sea Level Pressure  
Sea Level Pressure 30.03 in    
Wind  
Wind Speed 12 mph (NNW)    
Max Wind Speed 18 mph    
Max Gust Speed 24 mph    
Visibility 8 miles    
Events      
T = Trace of Precipitation, MM = Missing Value Source: NWS Daily Summary

Daily Weather History Graph

Daily Weather History Graph

Search for Another Location

Airport:

Trip Planner

Search our weather history database for the weather conditions in past years. The results will help you decide how hot, cold, wet, or windy it might be!

Date:

Astronomy

Mar. 14, 2013 Rise Set
Actual Time 7:05 AM MDT 6:55 PM MDT
Civil Twilight 6:35 AM MDT 7:26 PM MDT
Nautical Twilight 6:00 AM MDT 8:01 PM MDT
Astronomical Twilight 5:24 AM MDT 8:37 PM MDT
Moon 8:07 AM MDT (3/14) 10:29 PM MDT (3/14)
Length of Visible Light 12h 50m
Length of Day
11h 50m
Waxing Crescent, 9% of the Moon is Illuminated
Mar 14
Waxing Crescent
Mar 19
First Quarter
Mar 27
Full
Apr 2
Last Quarter
Apr 10
New

Hourly Weather History & Observations

Time (MDT) Temp. Windchill Dew Point Humidity Pressure Visibility Wind Dir Wind Speed Gust Speed Precip Events Conditions
12:56 AM 36.0 °F 28.5 °F 32.0 °F 86% 30.03 in 10.0 mi WNW 10.4 mph - N/A   Clear
1:56 AM 37.0 °F 29.8 °F 32.0 °F 82% 30.04 in 10.0 mi West 10.4 mph - N/A   Clear
2:56 AM 36.0 °F 29.0 °F 32.0 °F 86% 30.04 in 10.0 mi West 9.2 mph - N/A   Clear
3:56 AM 36.0 °F 28.5 °F 32.0 °F 86% 30.04 in 10.0 mi West 10.4 mph - N/A   Clear
4:56 AM 36.0 °F 28.0 °F 32.0 °F 86% 30.04 in 10.0 mi West 11.5 mph - N/A   Clear
5:56 AM 37.9 °F 29.2 °F 33.1 °F 83% 30.08 in 10.0 mi West 15.0 mph - N/A   Clear
6:56 AM 37.9 °F 30.0 °F 32.0 °F 79% 30.09 in 10.0 mi West 12.7 mph - N/A   Clear
7:56 AM 39.9 °F 32.9 °F 33.1 °F 77% 30.09 in 10.0 mi West 11.5 mph - N/A   Clear
8:56 AM 46.9 °F - 35.1 °F 63% 30.09 in 10.0 mi West 12.7 mph - N/A   Clear
9:56 AM 52.0 °F - 36.0 °F 54% 30.08 in 10.0 mi West 12.7 mph - N/A   Clear
10:56 AM 55.9 °F - 37.0 °F 49% 30.07 in 10.0 mi West 15.0 mph - N/A   Clear
11:56 AM 60.1 °F - 36.0 °F 41% 30.06 in 10.0 mi WSW 15.0 mph - N/A   Clear
12:56 PM 61.0 °F - 36.0 °F 39% 30.04 in 10.0 mi WSW 10.4 mph 19.6 mph N/A   Clear
1:56 PM 63.0 °F - 35.1 °F 35% 30.01 in 10.0 mi West 13.8 mph - N/A   Clear
2:56 PM 64.9 °F - 34.0 °F 32% 29.97 in 10.0 mi West 15.0 mph - N/A   Clear
3:56 PM 64.9 °F - 35.1 °F 33% 29.98 in 10.0 mi WNW 18.4 mph 24.2 mph N/A   Clear
4:56 PM 61.0 °F - 37.9 °F 42% 29.99 in 10.0 mi NNW 9.2 mph - N/A   Clear
5:56 PM 55.9 °F - 37.9 °F 51% 30.00 in 10.0 mi NNE 10.4 mph - N/A   Clear
6:56 PM 44.1 °F 37.1 °F 36.0 °F 73% 30.03 in 10.0 mi NE 15.0 mph - N/A   Overcast
7:56 PM 37.0 °F 28.9 °F 33.1 °F 86% 30.05 in 10.0 mi NE 12.7 mph - N/A   Overcast
8:16 PM 35.6 °F 26.2 °F 32.0 °F 87% 29.99 in 10.0 mi NE 15.0 mph - N/A   Overcast
8:41 PM 33.8 °F 24.8 °F 30.2 °F 87% 30.00 in 9.0 mi NE 12.7 mph - N/A   Overcast
8:56 PM 33.1 °F 23.4 °F 30.0 °F 89% 30.06 in 7.0 mi NE 13.8 mph - N/A   Overcast
9:38 PM 30.2 °F 22.6 °F 28.4 °F 93% 30.00 in 4.0 mi NE 8.1 mph - N/A   Overcast
9:56 PM 30.9 °F 21.7 °F 28.9 °F 92% 30.05 in 4.0 mi NE 11.5 mph - N/A   Overcast
10:26 PM 30.2 °F 21.3 °F 28.4 °F 93% 30.01 in 2.5 mi NE 10.4 mph - N/A   Overcast
10:56 PM 28.9 °F 20.4 °F 28.0 °F 96% 30.05 in 1.8 mi ENE 9.2 mph - N/A   Overcast
11:11 PM 28.4 °F 19.7 °F 26.6 °F 93% 30.00 in 2.0 mi NE 9.2 mph - N/A   Overcast
11:23 PM 28.4 °F 19.1 °F 26.6 °F 93% 29.99 in 1.5 mi ENE 10.4 mph - N/A   Overcast
11:49 PM 28.4 °F 20.4 °F 26.6 °F 93% 29.98 in 0.8 mi ENE 8.1 mph - N/A   Overcast
11:56 PM 28.0 °F 18.1 °F 27.0 °F 96% 30.02 in 1.0 mi NE 11.5 mph - N/A   Overcast